Weather History for Zapata, TX

Change the Weather History Date:

Thursday, December 1, 2011

  Actual Average (KLRD) Record (KLRD)
Temperature  
Mean Temperature 68 °F 60 °F  
Max Temperature 82 °F 71 °F 87 °F (1906)
Min Temperature 55 °F 50 °F 27 °F (1911)
Degree Days  
Heating Degree Days 0 7  
Month to date heating degree days 7  
Since 1 July heating degree days 122  
Cooling Degree Days 4 2  
Month to date cooling degree days 2  
Year to date cooling degree days 4257  
Growing Degree Days 18 (Base 50)    
Moisture  
Dew Point 48 °F    
Average Humidity 58    
Maximum Humidity 94    
Minimum Humidity 19    
Precipitation  
Precipitation 0.00 in 0.03 in 1.60 in (1902)
Month to date precipitation 0.03  
Year to date precipitation 19.35  
Sea Level Pressure  
Sea Level Pressure 30.00 in    
Wind  
Wind Speed 9 mph (SE)    
Max Wind Speed 18 mph    
Max Gust Speed 32 mph    
Visibility 10 miles    
Events      
T = Trace of Precipitation, MM = Missing Value Source: NWS Daily Summary

Daily Weather History Graph

Daily Weather History Graph

Search for Another Location

Airport:

Trip Planner

Search our weather history database for the weather conditions in past years. The results will help you decide how hot, cold, wet, or windy it might be!

Date:

Astronomy

Dec. 01, 2011 Rise Set
Actual Time 7:08 AM CST 5:43 PM CST
Civil Twilight 6:43 AM CST 6:08 PM CST
Nautical Twilight 6:14 AM CST 6:36 PM CST
Astronomical Twilight 5:46 AM CST 7:05 PM CST
Moon 12:17 PM CST (12/1) No Moon Set
Length of Visible Light 11h 24m
Length of Day
10h 34m
Waxing Crescent, 43% of the Moon is Illuminated
Dec 1
Waxing Crescent
Dec 2
First Quarter
Dec 10
Full
Dec 17
Last Quarter
Dec 24
New

Hourly Weather History & Observations

Time (CST) Temp. Dew Point Humidity Pressure Visibility Wind Dir Wind Speed Gust Speed Precip Events Conditions
12:15 AM 55.4 °F 48.2 °F 77% 30.04 in 10.0 mi ESE 4.6 mph - N/A   Scattered Clouds
12:35 AM 55.4 °F 48.2 °F 77% 30.04 in 10.0 mi East 5.8 mph - N/A   Scattered Clouds
12:55 AM 55.4 °F 50.0 °F 82% 30.03 in 10.0 mi East 4.6 mph - N/A   Scattered Clouds
1:15 AM 55.4 °F 50.0 °F 82% 30.02 in 10.0 mi ESE 6.9 mph - N/A   Clear
1:35 AM 55.4 °F 50.0 °F 82% 30.02 in 10.0 mi ESE 8.1 mph - N/A   Clear
1:55 AM 55.4 °F 51.8 °F 88% 30.02 in 10.0 mi East 6.9 mph - N/A   Clear
2:15 AM 55.4 °F 51.8 °F 88% 30.01 in 10.0 mi ESE 9.2 mph - N/A   Scattered Clouds
2:35 AM 57.2 °F 51.8 °F 82% 30.01 in 10.0 mi ESE 8.1 mph - N/A   Scattered Clouds
2:55 AM 59.0 °F 53.6 °F 82% 30.00 in 10.0 mi SE 6.9 mph - N/A   Clear
3:15 AM 59.0 °F 53.6 °F 82% 30.00 in 10.0 mi ESE 8.1 mph - N/A   Mostly Cloudy
3:35 AM 59.0 °F 53.6 °F 82% 29.99 in 10.0 mi ESE 8.1 mph - N/A   Scattered Clouds
3:55 AM 59.0 °F 53.6 °F 82% 29.99 in 10.0 mi SE 4.6 mph - N/A   Clear
4:15 AM 57.2 °F 53.6 °F 88% 30.00 in 10.0 mi ESE 5.8 mph - N/A   Scattered Clouds
4:35 AM 55.4 °F 53.6 °F 94% 30.00 in 10.0 mi East 3.5 mph - N/A   Scattered Clouds
4:55 AM 55.4 °F 53.6 °F 94% 30.00 in 10.0 mi ESE 4.6 mph - N/A   Clear
5:15 AM 55.4 °F 53.6 °F 94% 30.00 in 10.0 mi ESE 4.6 mph - N/A   Clear
5:35 AM 55.4 °F 53.6 °F 94% 30.00 in 10.0 mi ESE 4.6 mph - N/A   Clear
5:55 AM 55.4 °F 53.6 °F 94% 30.01 in 10.0 mi ESE 5.8 mph - N/A   Clear
6:15 AM 57.2 °F 55.4 °F 94% 30.01 in 10.0 mi SE 5.8 mph - N/A   Clear
6:35 AM 59.0 °F 55.4 °F 88% 30.01 in 10.0 mi SE 6.9 mph - N/A   Clear
6:55 AM 59.0 °F 55.4 °F 88% 30.02 in 10.0 mi SE 6.9 mph - N/A   Clear
7:15 AM 59.0 °F 53.6 °F 82% 30.02 in 10.0 mi SE 5.8 mph - N/A   Clear
7:35 AM 59.0 °F 53.6 °F 82% 30.02 in 10.0 mi SE 5.8 mph - N/A   Clear
7:55 AM 60.8 °F 53.6 °F 77% 30.03 in 10.0 mi SE 9.2 mph - N/A   Clear
8:35 AM 62.6 °F 53.6 °F 72% 30.04 in 10.0 mi SSE 12.7 mph 18.4 mph N/A   Clear
8:55 AM 64.4 °F 53.6 °F 68% 30.04 in 10.0 mi SSE 15.0 mph 23.0 mph N/A   Clear
9:15 AM 64.4 °F 53.6 °F 68% 30.04 in 10.0 mi SSE 12.7 mph 23.0 mph N/A   Clear
9:35 AM 68.0 °F 51.8 °F 56% 30.04 in 10.0 mi SSE 17.3 mph 23.0 mph N/A   Clear
9:55 AM 69.8 °F 50.0 °F 49% 30.04 in 10.0 mi SSE 15.0 mph 20.7 mph N/A   Clear
10:15 AM 69.8 °F 48.2 °F 46% 30.04 in 10.0 mi SSE 15.0 mph 24.2 mph N/A   Clear
10:35 AM 71.6 °F 46.4 °F 41% 30.04 in 10.0 mi SSE 17.3 mph 24.2 mph N/A   Clear
10:55 AM 71.6 °F 50.0 °F 46% 30.04 in 10.0 mi South 9.2 mph - N/A   Clear
11:15 AM 71.6 °F 50.0 °F 46% 30.03 in 10.0 mi South 10.4 mph - N/A   Clear
11:35 AM 71.6 °F 50.0 °F 46% 30.02 in 10.0 mi South 10.4 mph 16.1 mph N/A   Clear
11:55 AM 73.4 °F 48.2 °F 41% 30.01 in 10.0 mi SSE 10.4 mph - N/A   Clear
12:15 PM 75.2 °F 46.4 °F 36% 30.00 in 10.0 mi South 9.2 mph - N/A   Clear
12:35 PM 78.8 °F 44.6 °F 30% 29.98 in 10.0 mi South 10.4 mph 16.1 mph N/A   Clear
12:55 PM 78.8 °F 44.6 °F 30% 29.97 in 10.0 mi South 11.5 mph 26.5 mph N/A   Clear
1:15 PM 78.8 °F 42.8 °F 28% 29.97 in 10.0 mi South 11.5 mph 21.9 mph N/A   Clear
1:35 PM 80.6 °F 37.4 °F 21% 29.95 in 10.0 mi SSE 17.3 mph 27.6 mph N/A   Clear
1:55 PM 80.6 °F 35.6 °F 20% 29.94 in 10.0 mi SE 17.3 mph 32.2 mph N/A   Clear
2:15 PM 82.4 °F 35.6 °F 19% 29.93 in 10.0 mi SSE 18.4 mph 26.5 mph N/A   Clear
2:35 PM 82.4 °F 35.6 °F 19% 29.93 in 10.0 mi SSE 15.0 mph 27.6 mph N/A   Clear
2:55 PM 82.4 °F 35.6 °F 19% 29.93 in 10.0 mi SE 15.0 mph 23.0 mph N/A   Clear
3:15 PM 82.4 °F 37.4 °F 20% 29.93 in 10.0 mi SE 15.0 mph 27.6 mph N/A   Clear
3:35 PM 82.4 °F 39.2 °F 21% 29.93 in 10.0 mi ESE 16.1 mph 28.8 mph N/A   Clear
3:55 PM 80.6 °F 41.0 °F 24% 29.93 in 10.0 mi SE 15.0 mph 23.0 mph N/A   Clear
4:15 PM 80.6 °F 41.0 °F 24% 29.94 in 10.0 mi SE 17.3 mph 25.3 mph N/A   Clear
4:35 PM 80.6 °F 41.0 °F 24% 29.94 in 10.0 mi SE 15.0 mph 23.0 mph N/A   Clear
4:55 PM 78.8 °F 41.0 °F 26% 29.95 in 10.0 mi SE 13.8 mph 20.7 mph N/A   Clear
5:15 PM 78.8 °F 42.8 °F 28% 29.96 in 10.0 mi SE 15.0 mph 23.0 mph N/A   Clear
5:35 PM 77.0 °F 42.8 °F 29% 29.97 in 10.0 mi SE 13.8 mph 20.7 mph N/A   Clear
5:55 PM 77.0 °F 44.6 °F 32% 29.97 in 10.0 mi SE 16.1 mph 20.7 mph N/A   Clear
6:15 PM 73.4 °F 46.4 °F 38% 29.99 in 10.0 mi ESE 16.1 mph 19.6 mph N/A   Clear
6:35 PM 73.4 °F 50.0 °F 44% 30.00 in 10.0 mi ESE 13.8 mph 19.6 mph N/A   Clear
6:55 PM 73.4 °F 50.0 °F 44% 30.01 in 10.0 mi ESE 12.7 mph 19.6 mph N/A   Clear
7:15 PM 71.6 °F 50.0 °F 46% 30.02 in 10.0 mi SE 9.2 mph 17.3 mph N/A   Clear
7:35 PM 71.6 °F 51.8 °F 50% 30.04 in 10.0 mi SE 9.2 mph 16.1 mph N/A   Clear
7:55 PM 69.8 °F 51.8 °F 53% 30.05 in 10.0 mi ESE 10.4 mph 16.1 mph N/A   Clear
8:15 PM 69.8 °F 53.6 °F 56% 30.05 in 10.0 mi ESE 10.4 mph 17.3 mph N/A   Clear
8:35 PM 69.8 °F 53.6 °F 56% 30.06 in 10.0 mi SE 10.4 mph 16.1 mph N/A   Clear
8:55 PM 69.8 °F 53.6 °F 56% 30.06 in 10.0 mi SE 12.7 mph 20.7 mph N/A   Clear
9:15 PM 68.0 °F 53.6 °F 60% 30.07 in 10.0 mi SE 10.4 mph 18.4 mph N/A   Clear
9:35 PM 68.0 °F 53.6 °F 60% 30.07 in 10.0 mi SE 9.2 mph - N/A   Clear
10:35 PM 68.0 °F 55.4 °F 64% 30.08 in 10.0 mi SE 10.4 mph 17.3 mph N/A   Clear
10:55 PM 68.0 °F 55.4 °F 64% 30.08 in 10.0 mi SE 10.4 mph 16.1 mph N/A   Clear
11:15 PM 66.2 °F 55.4 °F 68% 30.08 in 10.0 mi SE 10.4 mph - N/A   Clear
11:35 PM 66.2 °F 55.4 °F 68% 30.09 in 10.0 mi SE 9.2 mph - N/A   Clear
11:55 PM 64.4 °F 55.4 °F 73% 30.09 in 10.0 mi SE 8.1 mph - N/A   Clear